Simultaneous Nadir Overpasses (SNOs) Predictions

Prediction of SNOs between GOES-16 and METOP-C Satellite Orbit:

Table of predicted SNOs for the next 14.0 days since TLE Epoch: 12/12/2022
Index Date Time (GOES-16) GOES-16 Lat,Lon METOP-C Lat,Lon Distance(km) Time Diff (sec)
1 12/12/2022 02:24:36 0.05, -75.19 0.41, -73.63 177.87 6
2 12/13/2022 14:44:54 -0.04, -75.22 0.65, -78.18 338.65 80
3 12/14/2022 14:21:35 -0.04, -75.22 -0.51, -73.20 231.36 80
4 12/16/2022 02:43:15 0.04, -75.21 -0.52, -77.79 292.58 80
5 12/17/2022 02:19:55 0.04, -75.23 0.58, -72.79 277.69 80
6 12/18/2022 14:41:28 -0.03, -75.27 0.46, -77.35 237.71 80
7 12/19/2022 14:18:09 -0.04, -75.28 -0.71, -72.36 332.87 80
8 12/21/2022 02:39:48 0.03, -75.27 -0.33, -76.95 190.58 80
9 12/22/2022 02:16:29 0.03, -75.29 0.78, -71.95 379.89 80
10 12/23/2022 14:35:21 -0.03, -75.33 0.24, -76.51 135.36 80
11 12/24/2022 14:17:22 -0.03, -75.34 -0.88, -71.52 435.41 80
